Location: Waldport
(44.4270°N, 124.0680°W)
Time: 10:10:50
(UTC-08:00)

OTV 5 (USA 277) - Pass Details

Date: 28 October 2019
Orbit: 310 x 324 km, 54.5° (Epoch: 17 October)

Event Time Altitude Azimuth Distance (km) Brightness Sun altitude
Rises 19:08:26 0° 199° (SSW) 2,045 ? -10.8°
Reaches altitude 10° 19:10:43 10° 179° (S) 1,222 ? -11.2°
Maximum altitude 19:12:42 18° 132° (SE) 869 ? -11.5°
Enters shadow 19:13:13 17° 116° (ESE) 899 ? -11.6°
